TimeEET,TemperatureF,Dew PointF,Humidity,Sea Level PressureIn,VisibilityMPH,Wind Direction,Wind SpeedMPH,Gust SpeedMPH,PrecipitationIn,Events,Conditions,WindDirDegrees,DateUTC
12:00 AM,69.8,42.8,38,29.89,3.7,NNE,2.3,-,N/A,,Unknown,30,2013-03-02 22:00:00
1:00 AM,69.8,42.8,38,29.89,3.7,Calm,Calm,-,N/A,,Unknown,0,2013-03-02 23:00:00
2:00 AM,68,41,25,29.88,4,Calm,Calm,,,,Haze,,2013-03-03 00:00:00
2:00 AM,68.0,41.0,37,29.86,3.7,Calm,Calm,-,N/A,,Unknown,0,2013-03-03 00:00:00
3:00 AM,66.2,42.8,43,29.86,-9999.0,NE,2.3,-,N/A,,Clear,50,2013-03-03 01:00:00
4:00 AM,62.6,42.8,48,29.86,-9999.0,North,-9999.0,-,N/A,,Clear,0,2013-03-03 02:00:00
5:00 AM,60.8,41.0,48,29.89,-9999.0,Calm,Calm,-,N/A,,Clear,0,2013-03-03 03:00:00
6:00 AM,59.0,39.2,48,29.89,3.7,Calm,Calm,-,N/A,,Unknown,0,2013-03-03 04:00:00
7:00 AM,60.8,44.6,55,29.89,3.7,South,2.3,-,N/A,,Unknown,170,2013-03-03 05:00:00
8:00 AM,69,39,22,29.92,4,Calm,Calm,,,,Haze,,2013-03-03 06:00:00
8:00 AM,68.0,39.2,35,29.92,3.7,Calm,Calm,-,N/A,,Unknown,0,2013-03-03 06:00:00
9:00 AM,75.2,48.2,38,29.92,3.7,SW,1.2,-,N/A,,Unknown,230,2013-03-03 07:00:00
10:00 AM,80.6,48.2,32,29.92,3.7,West,2.3,-,N/A,,Unknown,260,2013-03-03 08:00:00
11:00 AM,84.2,51.8,33,29.92,3.7,West,6.9,-,N/A,,Unknown,280,2013-03-03 09:00:00
12:00 PM,87.8,51.8,29,29.89,-9999.0,West,6.9,-,N/A,,Clear,260,2013-03-03 10:00:00
1:00 PM,93.2,50.0,23,29.83,-9999.0,West,2.3,-,N/A,,Clear,260,2013-03-03 11:00:00
2:00 PM,97,47,10,29.80,6,West,2.3,,,,,260,2013-03-03 12:00:00
2:00 PM,96.8,46.4,18,29.80,-9999.0,West,2.3,-,N/A,,Clear,260,2013-03-03 12:00:00
3:00 PM,98.6,46.4,17,29.80,-9999.0,WNW,3.5,-,N/A,,Clear,290,2013-03-03 13:00:00
4:00 PM,98.6,41.0,14,29.77,-9999.0,SSW,5.8,-,N/A,,Clear,210,2013-03-03 14:00:00
5:00 PM,98.6,39.2,13,29.77,-9999.0,SSE,5.8,-,N/A,,Clear,160,2013-03-03 15:00:00
6:00 PM,89.6,44.6,21,29.80,-9999.0,WNW,2.3,-,N/A,,Clear,300,2013-03-03 16:00:00
7:00 PM,84.2,48.2,29,29.80,-9999.0,Calm,Calm,-,N/A,,Clear,0,2013-03-03 17:00:00
8:00 PM,83,39,12,29.82,6,South,2.3,,,,,170,2013-03-03 18:00:00
8:00 PM,82.4,39.2,21,29.83,-9999.0,South,2.3,-,N/A,,Clear,170,2013-03-03 18:00:00
9:00 PM,78.8,33.8,20,29.83,-9999.0,Calm,Calm,-,N/A,,Clear,0,2013-03-03 19:00:00
10:00 PM,77.0,32.0,19,29.83,-9999.0,South,4.6,-,N/A,,Clear,170,2013-03-03 20:00:00
11:00 PM,73.4,39.2,29,29.83,-9999.0,NNW,2.3,-,N/A,,Clear,330,2013-03-03 21:00:00